QPF
0.01 0.02 0.05 0.06 0.07 0.06 0.05 0.05 0.04 0.04 0.04 0.04 0.05 0.06 0.05 0.05 0.04 0.03 0.03 0.03 0.04 0.04 0.04 0.03 0.03 0.03 0.03 0.03 0.03 0.02 0.02 0.02 0.03 0.02 0.02 0.03 0.03 0.03 0.02 0.01 0.02 0.02 0.03
0.01 0.01 0.03 0.05 0.06 0.05 0.03 0.03 0.03 0.03 0.03 0.03 0.04 0.04 0.05 0.05 0.04 0.04 0.03 0.03 0.04 0.05 0.05 0.04 0.03 0.02 0.02 0.03 0.04 0.03 0.02 0.02 0.02 0.01 0.01 0.02 0.03 0.03 0.02 0.01 0.01 0.02 0.04
0.01 0.01 0.01 0.03 0.04 0.05 0.03 0.03 0.03 0.03 0.03 0.03 0.03 0.03 0.03 0.03 0.03 0.04 0.03 0.03 0.03 0.04 0.05 0.04 0.03 0.02 0.02 0.03 0.04 0.03 0.02 0.02 0.01 0.01 0.01 0.01 0.02 0.03 0.02 0.02 0.02 0.02 0.04
0.00 0.00 0.01 0.04 0.05 0.05 0.03 0.03 0.03 0.03 0.04 0.03 0.03 0.03 0.02 0.02 0.02 0.02 0.03 0.03 0.03 0.03 0.02 0.03 0.03 0.03 0.02 0.02 0.02 0.02 0.02 0.01 0.01 0.01 0.01 0.01 0.01 0.03 0.03 0.03 0.02 0.02 0.02
0.00 0.00 0.01 0.03 0.04 0.03 0.03 0.03 0.02 0.03 0.04 0.04 0.04 0.03 0.03 0.03 0.03 0.03 0.04 0.04 0.03 0.03 0.02 0.02 0.03 0.02 0.02 0.02 0.02 0.02 0.01 0.01 0.01 0.01 0.01 0.02 0.02 0.04 0.04 0.02 0.02 0.02 0.02
0.00 0.00 0.01 0.02 0.02 0.02 0.03 0.04 0.04 0.04 0.04 0.03 0.03 0.03 0.04 0.06 0.04 0.04 0.03 0.03 0.04 0.03 0.02 0.02 0.03 0.02 0.02 0.01 0.01 0.01 0.01 0.01 0.01 0.01 0.01 0.01 0.02 0.04 0.04 0.03 0.04 0.03 0.03
0.00 0.01 0.02 0.02 0.02 0.02 0.02 0.03 0.03 0.03 0.03 0.03 0.03 0.03 0.04 0.09 0.06 0.05 0.04 0.04 0.04 0.03 0.02 0.02 0.02 0.02 0.02 0.02 0.02 0.01 0.01 0.01 0.00 0.00 0.01 0.02 0.03 0.03 0.04 0.04 0.05 0.04 0.04
0.01 0.01 0.02 0.02 0.01 0.01 0.01 0.02 0.03 0.03 0.04 0.03 0.03 0.03 0.03 0.03 0.03 0.04 0.04 0.04 0.04 0.03 0.03 0.03 0.03 0.03 0.02 0.02 0.02 0.02 0.01 0.01 0.00 0.00 0.01 0.02 0.03 0.03 0.04 0.04 0.05 0.05 0.03
0.01 0.01 0.01 0.02 0.01 0.01 0.01 0.01 0.02 0.02 0.04 0.05 0.03 0.03 0.03 0.03 0.02 0.02 0.03 0.04 0.05 0.05 0.04 0.04 0.03 0.03 0.03 0.02 0.01 0.01 0.01 0.01 0.01 0.01 0.01 0.01 0.02 0.03 0.04 0.04 0.05 0.06 0.05
0.01 0.01 0.01 0.01 0.01 0.02 0.02 0.01 0.01 0.01 0.02 0.04 0.04 0.03 0.02 0.02 0.03 0.02 0.02 0.03 0.05 0.06 0.06 0.05 0.03 0.02 0.02 0.01 0.01 0.01 0.01 0.01 0.01 0.01 0.01 0.02 0.02 0.02 0.03 0.04 0.05 0.06 0.07
0.01 0.01 0.01 0.01 0.01 0.01 0.01 0.01 0.01 0.01 0.01 0.02 0.03 0.02 0.02 0.01 0.01 0.02 0.03 0.03 0.03 0.04 0.05 0.05 0.03 0.02 0.01 0.01 0.01 0.01 0.01 0.01 0.01 0.01 0.01 0.02 0.02 0.03 0.03 0.04 0.05 0.07 0.08
0.01 0.01 0.01 0.01 0.01 0.01 0.01 0.01 0.01 0.01 0.01 0.01 0.01 0.01 0.02 0.02 0.01 0.01 0.02 0.02 0.02 0.02 0.02 0.03 0.03 0.02 0.01 0.01 0.01 0.01 0.01 0.01 0.01 0.01 0.01 0.01 0.03 0.05 0.05 0.04 0.05 0.06 0.07
0.01 0.01 0.01 0.01 0.01 0.00 0.00 0.01 0.01 0.01 0.01 0.01 0.00 0.00 0.01 0.02 0.02 0.02 0.02 0.01 0.01 0.01 0.02 0.02 0.02 0.02 0.01 0.01 0.01 0.00 0.01 0.01 0.01 0.01 0.01 0.01 0.02 0.04 0.06 0.06 0.06 0.06 0.06
0.00 0.00 0.01 0.01 0.01 0.00 0.00 0.00 0.00 0.00 0.00 0.01 0.00 0.00 0.00 0.01 0.02 0.03 0.02 0.01 0.01 0.01 0.01 0.01 0.02 0.02 0.01 0.01 0.01 0.00 0.00 0.00 0.00 0.00 0.01 0.01 0.01 0.02 0.04 0.06 0.06 0.06 0.07
0.00 0.00 0.01 0.01 0.01 0.01 0.00 0.00 0.00 0.00 0.00 0.00 0.00 0.00 0.00 0.00 0.01 0.02 0.02 0.02 0.01 0.01 0.01 0.01 0.02 0.02 0.02 0.01 0.01 0.01 0.00 0.00 0.00 0.00 0.00 0.01 0.01 0.02 0.04 0.05 0.05 0.05 0.06
0.00 0.00 0.00 0.01 0.01 0.01 0.01 0.01 0.00 0.00 0.00 0.00 0.00 0.00 0.00 0.00 0.00 0.01 0.02 0.02 0.02 0.01 0.01 0.01 0.01 0.02 0.02 0.02 0.01 0.01 0.00 0.00 0.00 0.00 0.00 0.00 0.01 0.01 0.03 0.06 0.06 0.06 0.06
0.00 0.00 0.00 0.00 0.01 0.01 0.01 0.01 0.01 0.00 0.00 0.00 0.00 0.00 0.00 0.00 0.00 0.00 0.01 0.01 0.02 0.02 0.02 0.01 0.01 0.02 0.02 0.02 0.02 0.01 0.00 0.00 0.00 0.00 0.01 0.01 0.01 0.01 0.02 0.04 0.06 0.07 0.07
0.00 0.00 0.00 0.00 0.01 0.01 0.01 0.01 0.01 0.01 0.00 0.00 0.00 0.00 0.00 0.00 0.00 0.00 0.00 0.01 0.01 0.02 0.02 0.02 0.02 0.03 0.04 0.03 0.02 0.02 0.01 0.00 0.00 0.00 0.01 0.01 0.01 0.01 0.02 0.05 0.09 0.10 0.10
0.00 0.00 0.00 0.00 0.00 0.01 0.01 0.01 0.01 0.01 0.01 0.00 0.00 0.00 0.00 0.00 0.00 0.00 0.00 0.01 0.01 0.02 0.03 0.03 0.02 0.02 0.04 0.07 0.07 0.04 0.02 0.01 0.00 0.01 0.01 0.01 0.01 0.01 0.01 0.04 0.11 0.13 0.13
0.00 0.00 0.00 0.00 0.00 0.01 0.01 0.01 0.02 0.02 0.01 0.00 0.00 0.00 0.00 0.00 0.00 0.00 0.00 0.01 0.01 0.01 0.02 0.02 0.03 0.02 0.02 0.04 0.07 0.08 0.07 0.05 0.02 0.01 0.01 0.01 0.01 0.01 0.01 0.03 0.06 0.07 0.07
0.01 0.00 0.00 0.00 0.00 0.00 0.01 0.01 0.01 0.02 0.02 0.01 0.00 0.00 0.00 0.00 0.00 0.00 0.00 0.00 0.00 0.01 0.01 0.02 0.03 0.03 0.02 0.03 0.04 0.06 0.06 0.06 0.04 0.03 0.02 0.02 0.02 0.02 0.02 0.02 0.03 0.05 0.05
0.00 0.00 0.00 0.00 0.00 0.00 0.01 0.01 0.01 0.01 0.02 0.02 0.01 0.00 0.00 0.00 0.00 0.00 0.00 0.00 0.00 0.00 0.00 0.01 0.02 0.04 0.04 0.03 0.03 0.04 0.06 0.05 0.04 0.03 0.02 0.02 0.02 0.02 0.02 0.02 0.03 0.03 0.04
0.00 0.00 0.00 0.00 0.00 0.00 0.00 0.01 0.01 0.01 0.01 0.02 0.01 0.00 0.00 0.00 0.00 0.00 0.00 0.00 0.00 0.00 0.00 0.00 0.01 0.02 0.04 0.04 0.04 0.04 0.04 0.04 0.03 0.03 0.02 0.02 0.01 0.01 0.02 0.04 0.03 0.03 0.03
0.00 0.00 0.00 0.00 0.00 0.00 0.00 0.00 0.01 0.01 0.01 0.01 0.01 0.01 0.00 0.00 0.00 0.00 0.00 0.00 0.00 0.00 0.00 0.00 0.00 0.01 0.02 0.03 0.03 0.04 0.04 0.04 0.04 0.03 0.02 0.02 0.01 0.01 0.01 0.03 0.04 0.04 0.04
0.00 0.00 0.00 0.00 0.00 0.00 0.00 0.00 0.00 0.01 0.01 0.01 0.01 0.01 0.01 0.00 0.00 0.00 0.00 0.00 0.00 0.00 0.00 0.00 0.00 0.01 0.01 0.03 0.04 0.04 0.04 0.03 0.03 0.03 0.02 0.02 0.02 0.01 0.00 0.01 0.02 0.03 0.04
0.00 0.00 0.00 0.00 0.00 0.00 0.00 0.00 0.00 0.01 0.01 0.01 0.01 0.01 0.01 0.01 0.00 0.00 0.00 0.00 0.00 0.00 0.00 0.00 0.00 0.00 0.00 0.01 0.03 0.04 0.04 0.03 0.03 0.03 0.03 0.02 0.01 0.01 0.00 0.00 0.00 0.01 0.01
MSLP
1018.04 1018.13 1018.19 1018.24 1018.30 1018.35 1018.41 1018.46 1018.49 1018.50 1018.48 1018.46 1018.42 1018.37 1018.32 1018.27 1018.22 1018.15 1018.08 1017.99 1017.89 1017.80 1017.72 1017.66 1017.63 1017.62 1017.61 1017.60 1017.55 1017.47 1017.33 1017.15 1016.92 1016.66 1016.39 1016.14 1015.90 1015.70 1015.52 1015.36 1015.22 1015.10 1014.99
1017.83 1017.93 1018.03 1018.14 1018.27 1018.41 1018.54 1018.66 1018.75 1018.80 1018.82 1018.81 1018.78 1018.74 1018.70 1018.66 1018.63 1018.59 1018.54 1018.48 1018.41 1018.34 1018.28 1018.23 1018.20 1018.18 1018.16 1018.11 1018.03 1017.90 1017.72 1017.49 1017.24 1016.97 1016.71 1016.48 1016.28 1016.12 1015.99 1015.86 1015.75 1015.63 1015.50
1017.67 1017.78 1017.92 1018.08 1018.27 1018.48 1018.70 1018.89 1019.05 1019.16 1019.22 1019.23 1019.21 1019.18 1019.14 1019.10 1019.06 1019.03 1018.99 1018.94 1018.89 1018.84 1018.80 1018.76 1018.74 1018.71 1018.67 1018.59 1018.46 1018.28 1018.05 1017.78 1017.49 1017.20 1016.95 1016.75 1016.59 1016.48 1016.39 1016.31 1016.22 1016.11 1015.98
1017.63 1017.75 1017.90 1018.10 1018.34 1018.62 1018.91 1019.18 1019.41 1019.58 1019.68 1019.72 1019.71 1019.68 1019.63 1019.57 1019.52 1019.47 1019.42 1019.37 1019.33 1019.29 1019.26 1019.24 1019.23 1019.20 1019.14 1019.03 1018.87 1018.64 1018.36 1018.05 1017.73 1017.43 1017.18 1016.99 1016.87 1016.79 1016.75 1016.70 1016.64 1016.55 1016.43
1017.75 1017.86 1018.02 1018.25 1018.53 1018.86 1019.20 1019.53 1019.82 1020.03 1020.17 1020.24 1020.25 1020.21 1020.15 1020.07 1019.98 1019.91 1019.84 1019.78 1019.73 1019.70 1019.69 1019.69 1019.69 1019.67 1019.61 1019.49 1019.30 1019.04 1018.72 1018.38 1018.03 1017.71 1017.46 1017.28 1017.18 1017.13 1017.11 1017.09 1017.06 1016.99 1016.89
1018.01 1018.13 1018.30 1018.54 1018.84 1019.19 1019.57 1019.93 1020.25 1020.50 1020.67 1020.76 1020.78 1020.74 1020.67 1020.57 1020.46 1020.36 1020.26 1020.18 1020.13 1020.11 1020.11 1020.13 1020.14 1020.14 1020.09 1019.98 1019.79 1019.52 1019.19 1018.82 1018.46 1018.13 1017.87 1017.69 1017.58 1017.54 1017.54 1017.54 1017.52 1017.48 1017.40
1018.37 1018.50 1018.69 1018.93 1019.24 1019.60 1019.98 1020.36 1020.69 1020.96 1021.15 1021.25 1021.29 1021.26 1021.18 1021.07 1020.95 1020.83 1020.72 1020.63 1020.57 1020.55 1020.56 1020.59 1020.63 1020.65 1020.62 1020.53 1020.35 1020.10 1019.77 1019.41 1019.05 1018.72 1018.45 1018.26 1018.15 1018.10 1018.09 1018.09 1018.09 1018.06 1018.00
1018.75 1018.92 1019.13 1019.39 1019.70 1020.05 1020.42 1020.78 1021.11 1021.37 1021.57 1021.69 1021.74 1021.73 1021.67 1021.58 1021.46 1021.34 1021.23 1021.14 1021.08 1021.06 1021.08 1021.12 1021.18 1021.21 1021.21 1021.14 1021.00 1020.77 1020.48 1020.15 1019.81 1019.49 1019.22 1019.02 1018.89 1018.82 1018.80 1018.79 1018.79 1018.77 1018.73
1019.08 1019.31 1019.56 1019.84 1020.16 1020.50 1020.85 1021.19 1021.49 1021.75 1021.94 1022.07 1022.14 1022.16 1022.13 1022.07 1021.99 1021.90 1021.80 1021.73 1021.67 1021.65 1021.67 1021.71 1021.77 1021.82 1021.83 1021.80 1021.70 1021.52 1021.28 1021.00 1020.70 1020.41 1020.15 1019.94 1019.80 1019.71 1019.66 1019.63 1019.62 1019.60 1019.58
1019.30 1019.60 1019.91 1020.23 1020.57 1020.91 1021.25 1021.57 1021.85 1022.08 1022.27 1022.41 1022.50 1022.55 1022.57 1022.56 1022.52 1022.47 1022.41 1022.36 1022.31 1022.29 1022.30 1022.34 1022.39 1022.44 1022.47 1022.46 1022.41 1022.29 1022.12 1021.90 1021.66 1021.41 1021.18 1020.98 1020.82 1020.71 1020.63 1020.57 1020.54 1020.51 1020.49
1019.37 1019.76 1020.15 1020.53 1020.91 1021.27 1021.61 1021.91 1022.17 1022.39 1022.57 1022.72 1022.83 1022.91 1022.98 1023.02 1023.03 1023.03 1023.02 1022.99 1022.97 1022.95 1022.95 1022.97 1023.01 1023.05 1023.09 1023.11 1023.10 1023.05 1022.95 1022.81 1022.64 1022.45 1022.26 1022.07 1021.91 1021.76 1021.65 1021.56 1021.49 1021.45 1021.42
1019.31 1019.80 1020.27 1020.73 1021.16 1021.56 1021.91 1022.22 1022.47 1022.69 1022.86 1023.01 1023.13 1023.24 1023.34 1023.43 1023.50 1023.55 1023.58 1023.58 1023.58 1023.57 1023.57 1023.58 1023.60 1023.64 1023.69 1023.74 1023.77 1023.78 1023.76 1023.70 1023.61 1023.48 1023.33 1023.17 1022.99 1022.82 1022.67 1022.53 1022.42 1022.35 1022.30
1019.16 1019.73 1020.30 1020.83 1021.32 1021.77 1022.16 1022.49 1022.75 1022.97 1023.14 1023.29 1023.42 1023.54 1023.66 1023.78 1023.88 1023.98 1024.04 1024.09 1024.11 1024.12 1024.13 1024.14 1024.16 1024.21 1024.27 1024.34 1024.42 1024.49 1024.54 1024.56 1024.55 1024.48 1024.38 1024.23 1024.05 1023.85 1023.65 1023.47 1023.31 1023.19 1023.10
1018.96 1019.61 1020.25 1020.85 1021.42 1021.92 1022.36 1022.72 1023.01 1023.23 1023.41 1023.55 1023.68 1023.80 1023.93 1024.06 1024.18 1024.30 1024.41 1024.49 1024.55 1024.59 1024.62 1024.65 1024.69 1024.75 1024.84 1024.95 1025.07 1025.20 1025.32 1025.41 1025.46 1025.45 1025.38 1025.26 1025.07 1024.85 1024.60 1024.36 1024.14 1023.97 1023.84
1018.76 1019.46 1020.15 1020.82 1021.44 1022.00 1022.49 1022.90 1023.22 1023.47 1023.66 1023.81 1023.93 1024.04 1024.15 1024.28 1024.41 1024.54 1024.67 1024.79 1024.89 1024.97 1025.04 1025.11 1025.20 1025.30 1025.42 1025.57 1025.74 1025.93 1026.10 1026.25 1026.36 1026.40 1026.36 1026.25 1026.06 1025.82 1025.53 1025.24 1024.96 1024.73 1024.54
1018.58 1019.31 1020.04 1020.74 1021.41 1022.02 1022.56 1023.02 1023.39 1023.68 1023.89 1024.04 1024.15 1024.25 1024.35 1024.46 1024.58 1024.72 1024.86 1025.01 1025.15 1025.29 1025.42 1025.55 1025.69 1025.84 1026.02 1026.22 1026.44 1026.66 1026.88 1027.08 1027.22 1027.30 1027.30 1027.21 1027.03 1026.78 1026.47 1026.13 1025.81 1025.51 1025.28
1018.40 1019.15 1019.89 1020.62 1021.31 1021.97 1022.56 1023.07 1023.50 1023.83 1024.08 1024.25 1024.37 1024.46 1024.54 1024.63 1024.74 1024.88 1025.03 1025.20 1025.39 1025.58 1025.77 1025.97 1026.17 1026.39 1026.62 1026.86 1027.11 1027.37 1027.62 1027.85 1028.02 1028.14 1028.17 1028.11 1027.96 1027.72 1027.41 1027.07 1026.71 1026.38 1026.09
1018.18 1018.94 1019.70 1020.44 1021.16 1021.85 1022.49 1023.06 1023.54 1023.93 1024.22 1024.43 1024.58 1024.68 1024.76 1024.84 1024.94 1025.06 1025.22 1025.41 1025.62 1025.86 1026.10 1026.36 1026.62 1026.89 1027.16 1027.44 1027.72 1028.00 1028.26 1028.50 1028.70 1028.85 1028.92 1028.91 1028.81 1028.62 1028.35 1028.03 1027.68 1027.32 1026.99
1017.88 1018.66 1019.43 1020.19 1020.94 1021.66 1022.34 1022.97 1023.52 1023.97 1024.33 1024.59 1024.77 1024.90 1025.00 1025.08 1025.18 1025.30 1025.46 1025.65 1025.88 1026.14 1026.42 1026.71 1027.02 1027.32 1027.62 1027.91 1028.20 1028.48 1028.75 1028.99 1029.21 1029.38 1029.50 1029.56 1029.53 1029.43 1029.24 1028.98 1028.66 1028.32 1027.98
1017.44 1018.26 1019.07 1019.86 1020.64 1021.40 1022.13 1022.81 1023.42 1023.95 1024.37 1024.70 1024.95 1025.12 1025.26 1025.37 1025.47 1025.60 1025.75 1025.94 1026.16 1026.42 1026.71 1027.01 1027.32 1027.64 1027.94 1028.23 1028.51 1028.78 1029.03 1029.27 1029.49 1029.70 1029.87 1030.00 1030.08 1030.08 1030.00 1029.84 1029.61 1029.31 1028.98
1016.84 1017.73 1018.59 1019.43 1020.26 1021.07 1021.85 1022.59 1023.26 1023.85 1024.35 1024.76 1025.07 1025.32 1025.51 1025.66 1025.79 1025.93 1026.08 1026.25 1026.46 1026.70 1026.96 1027.24 1027.54 1027.84 1028.12 1028.39 1028.65 1028.89 1029.12 1029.34 1029.57 1029.80 1030.02 1030.23 1030.42 1030.54 1030.59 1030.56 1030.43 1030.21 1029.91
1016.08 1017.06 1018.01 1018.92 1019.82 1020.68 1021.51 1022.30 1023.02 1023.67 1024.24 1024.72 1025.12 1025.45 1025.71 1025.92 1026.10 1026.25 1026.41 1026.57 1026.74 1026.94 1027.17 1027.42 1027.67 1027.94 1028.19 1028.43 1028.66 1028.87 1029.07 1029.27 1029.49 1029.74 1030.00 1030.28 1030.55 1030.80 1030.98 1031.08 1031.07 1030.94 1030.71
1015.21 1016.30 1017.34 1018.34 1019.31 1020.23 1021.11 1021.94 1022.70 1023.40 1024.03 1024.58 1025.06 1025.47 1025.82 1026.10 1026.34 1026.54 1026.70 1026.86 1027.01 1027.17 1027.35 1027.55 1027.77 1027.99 1028.22 1028.43 1028.63 1028.81 1028.99 1029.17 1029.38 1029.62 1029.90 1030.21 1030.55 1030.88 1031.17 1031.38 1031.49 1031.47 1031.31
1014.29 1015.48 1016.63 1017.72 1018.76 1019.74 1020.66 1021.51 1022.31 1023.04 1023.71 1024.32 1024.87 1025.36 1025.80 1026.17 1026.49 1026.74 1026.94 1027.10 1027.25 1027.38 1027.53 1027.69 1027.87 1028.07 1028.28 1028.48 1028.67 1028.84 1029.00 1029.16 1029.34 1029.56 1029.83 1030.14 1030.50 1030.87 1031.22 1031.51 1031.70 1031.77 1031.70
1013.42 1014.69 1015.93 1017.10 1018.20 1019.23 1020.18 1021.05 1021.85 1022.59 1023.29 1023.94 1024.55 1025.13 1025.66 1026.13 1026.53 1026.86 1027.12 1027.31 1027.46 1027.60 1027.73 1027.87 1028.04 1028.24 1028.45 1028.66 1028.86 1029.04 1029.20 1029.35 1029.50 1029.67 1029.89 1030.16 1030.49 1030.84 1031.20 1031.52 1031.77 1031.90 1031.90
1012.67 1013.99 1015.28 1016.51 1017.66 1018.72 1019.69 1020.56 1021.36 1022.10 1022.80 1023.48 1024.15 1024.79 1025.41 1025.98 1026.48 1026.90 1027.23 1027.49 1027.68 1027.83 1027.97 1028.13 1028.31 1028.52 1028.76 1029.01 1029.24 1029.45 1029.62 1029.76 1029.88 1030.00 1030.15 1030.34 1030.59 1030.88 1031.19 1031.49 1031.74 1031.90 1031.95
Thickness
5673 5671 5669 5671 5672 5673 5674 5674 5675 5675 5676 5677 5677 5678 5678 5679 5679 5680 5680 5681 5683 5684 5685 5686 5687 5688 5689 5690 5691 5691 5692 5693 5694 5695 5696 5697 5698 5698 5699 5700 5702 5702 5701
5669 5668 5666 5667 5668 5668 5668 5669 5670 5670 5671 5672 5672 5673 5673 5674 5674 5675 5675 5676 5677 5678 5680 5681 5682 5683 5684 5685 5686 5686 5687 5688 5689 5691 5692 5693 5693 5694 5695 5696 5697 5697 5697
5665 5664 5662 5662 5663 5663 5663 5664 5664 5665 5665 5666 5667 5667 5668 5668 5669 5669 5670 5671 5672 5673 5674 5675 5677 5678 5679 5680 5681 5682 5682 5684 5685 5687 5689 5691 5690 5689 5690 5691 5692 5693 5693
5660 5659 5658 5657 5657 5657 5658 5658 5659 5659 5660 5660 5661 5662 5662 5663 5663 5663 5664 5665 5666 5667 5668 5670 5671 5672 5673 5675 5676 5677 5678 5679 5680 5683 5686 5687 5687 5685 5686 5686 5687 5688 5689
5655 5654 5653 5652 5652 5652 5652 5652 5653 5653 5653 5654 5655 5655 5656 5657 5657 5658 5658 5659 5659 5661 5662 5664 5665 5666 5668 5669 5670 5671 5672 5674 5676 5679 5680 5681 5681 5680 5681 5681 5682 5683 5684
5649 5648 5647 5646 5646 5646 5646 5646 5646 5646 5647 5648 5648 5649 5650 5650 5651 5652 5652 5653 5654 5655 5656 5658 5659 5661 5662 5663 5665 5666 5667 5668 5672 5674 5675 5676 5676 5675 5676 5676 5677 5678 5679
5643 5642 5641 5640 5640 5639 5639 5639 5640 5640 5640 5641 5642 5642 5642 5643 5644 5645 5646 5647 5648 5649 5651 5652 5653 5655 5656 5657 5659 5660 5661 5663 5667 5668 5669 5669 5669 5670 5671 5671 5672 5673 5674
5635 5635 5634 5633 5633 5632 5632 5632 5632 5633 5633 5634 5634 5635 5635 5636 5637 5638 5639 5640 5642 5643 5645 5646 5647 5649 5650 5651 5652 5653 5655 5657 5660 5662 5662 5663 5663 5664 5665 5666 5667 5667 5668
5627 5627 5626 5626 5626 5625 5625 5625 5625 5626 5626 5626 5627 5627 5628 5628 5629 5630 5632 5633 5635 5637 5638 5639 5641 5642 5643 5645 5646 5647 5648 5651 5655 5655 5656 5656 5656 5658 5659 5660 5661 5661 5662
5619 5619 5619 5618 5618 5618 5618 5618 5618 5618 5618 5619 5619 5619 5620 5621 5621 5623 5624 5625 5628 5629 5631 5632 5634 5635 5636 5637 5639 5640 5642 5645 5647 5648 5649 5649 5650 5651 5653 5654 5655 5656 5656
5612 5611 5611 5611 5611 5611 5611 5610 5610 5610 5610 5611 5611 5611 5612 5613 5614 5615 5616 5617 5620 5622 5624 5625 5626 5628 5629 5631 5632 5634 5636 5639 5640 5641 5641 5641 5643 5645 5646 5647 5648 5650 5650
5607 5604 5603 5603 5603 5603 5603 5603 5603 5602 5602 5603 5603 5604 5604 5605 5606 5607 5608 5609 5611 5613 5615 5617 5619 5621 5623 5625 5626 5627 5629 5631 5633 5633 5633 5634 5636 5638 5639 5640 5642 5643 5644
5600 5597 5596 5595 5595 5595 5595 5595 5595 5594 5594 5594 5595 5595 5596 5597 5598 5599 5601 5602 5603 5605 5608 5610 5613 5614 5616 5617 5619 5620 5621 5623 5624 5624 5625 5626 5628 5630 5632 5633 5634 5635 5637
5593 5590 5588 5587 5587 5587 5587 5587 5586 5586 5586 5586 5586 5586 5588 5589 5590 5591 5593 5593 5595 5597 5599 5602 5604 5606 5608 5609 5611 5612 5613 5614 5615 5616 5616 5617 5620 5622 5624 5625 5626 5628 5629
5586 5583 5581 5580 5580 5579 5579 5578 5578 5578 5578 5577 5577 5577 5578 5580 5581 5582 5583 5584 5586 5588 5590 5592 5595 5598 5600 5601 5602 5604 5605 5606 5607 5607 5608 5608 5610 5613 5615 5617 5618 5619 5621
5578 5576 5573 5572 5571 5570 5570 5569 5568 5568 5568 5569 5568 5568 5569 5570 5571 5572 5574 5575 5576 5578 5580 5583 5586 5588 5590 5592 5594 5594 5595 5596 5597 5598 5599 5600 5601 5603 5605 5607 5609 5610 5612
5571 5568 5565 5563 5562 5562 5561 5560 5559 5559 5559 5559 5559 5559 5559 5560 5561 5562 5564 5565 5566 5568 5570 5573 5576 5579 5581 5583 5584 5585 5586 5587 5588 5588 5590 5591 5592 5593 5594 5596 5598 5600 5602
5563 5560 5557 5555 5554 5553 5552 5551 5550 5550 5549 5549 5549 5549 5549 5549 5550 5551 5553 5554 5555 5557 5560 5563 5565 5569 5571 5573 5575 5576 5576 5577 5578 5579 5580 5581 5582 5583 5584 5585 5587 5589 5591
5555 5552 5549 5547 5545 5544 5542 5541 5540 5540 5539 5539 5539 5538 5538 5538 5539 5541 5542 5543 5544 5547 5550 5551 5554 5557 5559 5561 5563 5565 5566 5567 5567 5568 5569 5570 5570 5571 5573 5574 5576 5577 5580
5547 5544 5541 5538 5536 5534 5532 5531 5530 5529 5528 5528 5528 5527 5528 5528 5528 5530 5531 5532 5534 5536 5538 5540 5542 5544 5547 5549 5552 5554 5555 5556 5557 5558 5558 5559 5559 5560 5562 5563 5565 5567 5568
5539 5536 5533 5531 5528 5525 5524 5523 5522 5520 5519 5518 5517 5516 5517 5517 5518 5518 5519 5520 5522 5524 5526 5528 5530 5532 5534 5537 5541 5544 5545 5545 5546 5546 5547 5548 5548 5549 5550 5551 5553 5555 5557
5533 5529 5526 5523 5520 5518 5516 5515 5512 5510 5508 5507 5505 5505 5505 5506 5506 5507 5508 5509 5511 5513 5514 5516 5518 5520 5522 5523 5528 5534 5538 5538 5536 5535 5535 5536 5536 5537 5538 5539 5541 5543 5544
5526 5523 5519 5516 5512 5509 5506 5503 5501 5499 5498 5497 5496 5495 5494 5494 5494 5495 5497 5498 5499 5501 5502 5504 5506 5508 5510 5511 5513 5518 5526 5531 5526 5525 5523 5524 5524 5524 5526 5527 5528 5529 5531
5519 5514 5511 5506 5503 5499 5496 5494 5494 5493 5491 5489 5486 5484 5483 5482 5483 5483 5484 5486 5487 5488 5490 5491 5493 5495 5497 5499 5500 5501 5505 5508 5511 5515 5514 5512 5511 5512 5513 5514 5515 5516 5517
5510 5505 5501 5497 5493 5490 5487 5485 5484 5483 5481 5478 5475 5473 5472 5471 5471 5471 5472 5473 5474 5476 5477 5478 5479 5481 5483 5485 5487 5489 5491 5492 5495 5500 5503 5502 5501 5500 5500 5501 5501 5503 5504
5501 5496 5492 5488 5485 5481 5477 5475 5474 5473 5469 5467 5465 5463 5462 5460 5459 5459 5459 5460 5461 5463 5464 5465 5466 5468 5470 5471 5473 5475 5477 5480 5483 5485 5488 5489 5489 5488 5487 5487 5487 5488 5490